Wind_Speed
10 10 11 11 11 11 11 11 12 13 13 14 14 14 13 13 14 14 14 14 15 15 15 16 16 17 16 16 16 16 16 16 16 16 16 16 17 17 17 17 16 16 16 16
11 11 12 12 12 12 13 13 13 14 14 14 15 14 13 14 14 14 15 16 16 16 16 15 17 17 18 17 17 17 18 18 17 17 17 18 18 18 18 18 17 17 18 17
12 12 12 13 13 13 14 14 14 14 14 14 15 14 13 13 14 15 15 16 16 16 16 16 17 18 18 18 18 18 18 19 19 18 19 19 19 19 19 19 19 18 19 18
13 13 13 14 14 14 14 14 14 15 14 13 13 15 14 14 14 16 16 17 16 16 17 17 17 18 19 19 19 19 20 20 20 20 20 20 20 20 20 20 20 20 20 19
12 13 14 14 14 14 15 14 15 15 15 14 13 15 14 15 15 16 16 17 17 18 18 18 18 19 20 20 19 20 20 20 19 20 21 21 21 20 21 21 21 21 21 21
12 12 14 14 15 15 14 15 14 14 14 15 14 16 16 15 16 17 17 17 17 18 19 19 19 19 20 20 19 20 21 21 20 21 21 21 22 22 22 21 21 22 22 22
12 12 13 15 16 16 14 14 14 14 14 15 16 17 18 17 17 18 18 18 17 18 19 19 19 19 19 19 19 21 21 21 21 22 22 23 23 23 23 23 22 22 22 22
12 13 13 14 15 16 16 14 14 15 15 15 16 19 19 18 19 19 18 19 18 18 19 19 20 20 20 20 20 21 21 22 22 22 23 23 24 24 24 24 23 23 23 23
13 14 13 13 14 16 16 16 16 16 16 16 16 19 20 19 20 20 19 20 20 20 20 20 20 20 21 21 20 20 21 22 22 23 23 23 24 24 24 24 24 23 24 24
15 16 14 14 15 15 17 17 16 17 17 17 17 18 20 19 20 20 20 20 20 20 20 20 21 21 21 21 21 21 21 21 22 22 23 23 23 23 23 23 24 24 24 25
16 16 15 15 15 15 16 17 18 18 18 18 18 19 19 20 20 20 21 21 21 21 21 21 22 23 23 22 21 22 22 22 22 22 22 22 22 22 23 23 24 24 25 26
16 17 16 15 16 16 16 17 18 19 19 19 20 20 19 20 21 21 22 22 21 21 22 22 23 23 24 24 24 24 24 24 23 23 23 23 23 23 23 24 24 25 25 26
16 17 17 17 17 18 18 17 18 20 20 20 20 20 20 21 21 22 23 23 22 22 22 23 23 23 24 24 25 25 25 25 25 24 23 23 23 24 24 24 25 25 26 26
18 19 19 19 18 19 19 19 20 21 21 21 21 20 21 23 23 22 23 24 24 23 23 24 24 24 24 25 25 26 26 26 25 25 24 24 24 24 24 25 25 26 27 27
20 20 21 20 20 20 20 21 22 22 22 22 21 21 21 23 24 23 24 24 24 24 24 24 25 25 25 25 26 26 25 25 25 25 25 25 25 25 25 26 26 27 28 29
21 22 22 22 22 22 22 21 23 23 22 23 23 22 22 23 25 25 25 24 24 24 24 25 25 25 25 26 26 26 25 25 25 25 25 25 26 26 26 27 27 28 29 30
23 23 24 24 24 24 24 22 23 24 24 24 24 24 24 24 26 26 25 25 25 25 25 26 26 25 25 25 25 25 26 26 26 26 26 26 26 26 27 28 28 29 30 30
24 25 26 26 26 27 24 22 24 25 25 26 26 25 24 25 26 26 26 26 25 25 26 26 26 25 25 25 25 25 25 25 26 26 27 27 27 27 28 29 29 30 30 30
25 25 26 27 28 28 26 23 24 26 27 26 27 27 26 25 26 27 27 27 26 26 26 26 25 25 24 24 24 24 25 25 25 26 26 27 27 28 28 29 30 31 30 30
25 26 27 28 30 30 27 24 26 27 27 27 28 28 28 28 28 28 28 28 27 27 27 27 26 26 25 25 25 25 25 25 26 26 27 27 28 28 28 29 29 30 31 31
24 25 27 28 30 31 29 27 27 28 28 27 28 28 30 30 30 30 29 28 28 28 28 28 27 27 27 27 26 26 26 26 26 27 27 28 28 28 29 29 30 31 32 32
25 26 26 27 28 29 29 29 29 30 29 30 29 30 30 30 31 31 31 30 29 29 29 28 28 28 28 28 28 28 27 27 28 28 28 29 29 29 29 30 31 32 32 33
26 27 27 28 28 28 28 30 31 31 31 32 32 32 31 31 31 31 31 30 30 30 30 30 29 29 29 28 29 29 29 29 29 29 29 30 30 30 30 31 32 32 33 34
26 27 28 30 30 30 29 29 30 32 32 33 33 34 33 32 32 31 31 30 30 30 30 30 30 30 30 30 30 30 31 31 30 31 31 31 32 32 32 33 33 34 34 35
29 29 30 30 30 32 32 31 31 32 33 33 33 34 33 32 32 32 32 32 31 31 31 31 31 31 31 31 32 32 32 32 32 32 33 33 33 33 34 34 34 35 35 35
29 30 31 31 31 32 33 34 34 34 33 34 34 34 34 34 34 33 33 33 32 32 32 32 33 33 33 33 33 33 33 34 34 34 34 34 35 35 35 35 35 35 35 35
Wind_Direction
254 251 254 256 256 258 259 262 263 266 268 269 267 262 262 260 257 255 254 256 259 261 261 263 265 266 268 268 270 272 272 274 276 277 278 279 282 284 286 286 290 290 290 290
258 257 258 256 255 256 259 261 260 264 269 267 263 261 261 262 260 258 254 255 260 262 263 266 268 268 269 269 270 272 274 275 276 275 275 277 280 283 286 287 289 290 291 292
259 258 258 258 257 257 258 259 259 263 267 269 268 266 265 263 262 262 260 259 261 262 264 267 269 270 271 271 272 274 275 276 276 276 275 277 279 281 284 286 287 289 291 291
260 256 255 253 254 255 256 256 257 258 260 265 268 271 269 270 270 267 266 265 265 264 264 266 269 270 271 271 272 273 275 276 276 276 277 277 277 280 282 283 284 287 289 290
262 257 254 251 252 254 257 256 257 259 259 261 267 273 273 271 269 271 270 270 269 268 270 270 270 270 270 270 272 273 275 275 276 276 276 276 277 279 281 281 282 284 287 289
263 262 257 256 254 254 256 257 257 260 263 261 265 272 275 272 272 273 269 268 268 270 271 271 270 269 269 272 274 274 276 277 277 277 278 278 278 279 280 280 280 282 285 287
269 269 265 260 257 254 253 256 257 258 265 271 270 272 274 276 274 274 271 268 267 272 272 270 270 269 270 271 274 276 276 277 278 278 278 281 281 279 279 278 279 280 283 286
271 271 268 266 263 257 253 253 256 258 259 265 269 273 277 274 273 275 275 274 271 272 272 271 270 270 271 272 274 277 278 277 278 279 280 281 281 280 279 279 279 280 282 284
272 269 266 268 268 261 255 252 254 260 263 265 268 273 279 276 274 275 275 272 272 270 271 271 271 272 274 275 275 277 278 279 279 280 281 282 281 280 279 279 280 281 281 283
271 270 265 264 265 263 259 255 253 257 263 262 266 268 274 275 274 275 276 273 272 272 270 271 272 274 276 277 277 277 278 280 281 282 282 282 282 280 279 280 281 281 279 281
272 273 269 264 265 266 264 259 255 257 262 265 266 268 271 271 273 274 275 277 276 273 272 271 272 274 275 276 277 279 280 281 282 282 282 282 282 282 281 281 282 282 279 280
271 270 269 266 266 268 268 264 259 258 262 264 266 269 268 268 271 274 276 276 276 276 275 275 275 274 275 276 277 278 279 281 282 282 282 282 282 282 283 284 284 284 283 282
269 269 268 270 268 266 269 268 262 260 262 263 268 271 271 271 269 273 276 277 276 276 276 276 276 276 274 275 277 278 279 281 281 281 282 280 281 282 283 284 285 285 284 283
267 269 269 270 273 272 271 271 266 264 263 264 268 271 270 271 271 272 274 277 279 276 277 277 277 276 275 276 277 278 279 280 280 280 280 279 279 281 283 285 286 286 285 285
268 268 269 271 273 274 273 270 266 266 266 266 268 269 266 270 272 274 275 276 278 277 278 278 278 278 278 277 277 277 278 279 279 279 279 280 280 281 283 286 288 288 287 287
267 268 269 271 273 273 272 270 268 266 266 267 267 270 268 268 272 274 276 277 277 278 278 278 278 279 280 279 277 276 277 278 278 278 278 280 281 282 284 285 287 288 289 288
269 268 270 272 274 274 273 272 271 271 268 270 269 268 269 270 270 271 274 276 276 277 278 279 279 280 280 279 278 278 277 277 278 278 278 279 280 282 284 285 287 288 289 289
271 269 270 273 274 274 279 276 272 272 272 271 270 270 271 269 271 272 273 275 277 277 277 278 278 279 279 279 279 279 279 278 278 278 279 280 281 282 283 284 286 288 290 290
272 272 271 272 274 276 278 278 276 274 273 271 271 271 271 271 271 272 273 275 277 277 277 278 278 278 279 279 280 280 280 280 279 279 280 281 282 283 284 285 286 288 289 289
275 272 272 273 274 275 279 280 278 277 275 273 271 270 270 269 270 271 274 275 276 276 276 276 276 277 277 279 280 280 281 280 280 280 281 282 282 284 285 286 287 288 288 289
277 275 274 274 275 276 279 279 278 277 275 274 272 271 268 269 270 270 272 274 275 275 275 275 275 275 276 278 279 280 281 281 280 280 281 282 283 284 284 286 287 289 290 289
279 277 276 276 277 279 278 277 276 275 273 272 272 271 271 271 271 270 272 273 274 274 274 274 274 274 275 276 277 278 279 280 280 280 281 282 283 283 284 285 288 290 290 291
278 277 275 275 276 279 278 277 276 275 273 272 271 270 271 272 271 271 272 273 274 274 274 273 273 273 274 275 276 277 278 279 280 281 282 281 282 283 284 286 288 290 290 290
280 278 276 274 274 275 274 275 275 274 272 272 272 271 271 272 272 271 272 272 272 272 273 273 272 272 273 274 275 277 278 279 280 281 282 282 282 283 285 287 289 290 290 291
280 279 277 277 276 274 274 275 275 273 272 272 273 273 272 270 270 270 271 271 271 271 272 271 270 271 272 273 275 276 278 279 279 280 282 283 283 284 285 287 289 290 291 291
279 279 279 279 278 277 276 275 275 274 273 273 273 272 272 271 270 270 270 270 270 270 271 272 271 271 272 274 275 276 277 278 279 280 281 282 283 285 286 286 288 290 291 291
Height
5829 5831 5831 5832 5833 5833 5833 5834 5834 5834 5834 5834 5834 5835 5835 5836 5837 5837 5838 5838 5839 5840 5841 5841 5841 5842 5842 5843 5843 5843 5844 5844 5844 5844 5844 5844 5844 5844 5843 5843 5842 5842 5842 5841
5827 5828 5829 5829 5829 5830 5830 5830 5831 5831 5830 5830 5830 5831 5832 5832 5833 5834 5835 5835 5836 5837 5837 5838 5838 5839 5839 5839 5839 5840 5840 5840 5840 5841 5841 5841 5840 5840 5840 5839 5839 5838 5838 5837
5823 5825 5824 5825 5826 5826 5826 5827 5827 5828 5827 5827 5827 5828 5829 5829 5830 5830 5831 5832 5832 5833 5834 5834 5835 5835 5835 5836 5836 5836 5836 5836 5836 5836 5836 5836 5836 5836 5836 5835 5835 5834 5834 5833
5819 5820 5820 5821 5821 5821 5822 5823 5823 5823 5824 5823 5825 5824 5825 5825 5826 5827 5828 5828 5829 5829 5829 5830 5831 5831 5831 5831 5831 5831 5831 5831 5831 5831 5831 5831 5831 5831 5831 5831 5830 5830 5829 5829
5815 5815 5816 5817 5817 5817 5818 5818 5819 5819 5819 5820 5821 5821 5822 5821 5822 5823 5823 5824 5825 5825 5825 5826 5826 5826 5826 5827 5827 5827 5827 5826 5826 5826 5826 5826 5826 5826 5826 5826 5825 5825 5824 5823
5811 5811 5812 5812 5813 5813 5814 5815 5815 5815 5816 5816 5817 5817 5818 5818 5818 5819 5820 5820 5821 5821 5821 5821 5822 5822 5822 5822 5822 5822 5822 5821 5821 5821 5820 5820 5820 5820 5820 5820 5820 5819 5819 5818
5808 5808 5808 5808 5809 5810 5810 5812 5812 5812 5812 5813 5814 5813 5814 5814 5815 5814 5815 5816 5816 5816 5817 5817 5817 5817 5817 5817 5817 5817 5817 5816 5816 5815 5815 5814 5814 5813 5813 5813 5813 5813 5813 5812
5804 5805 5805 5804 5805 5805 5806 5808 5809 5809 5809 5810 5810 5809 5811 5810 5810 5810 5811 5811 5811 5812 5812 5812 5812 5812 5812 5812 5812 5812 5811 5811 5810 5809 5809 5808 5808 5807 5807 5807 5807 5806 5806 5806
5801 5801 5802 5801 5801 5801 5802 5803 5804 5805 5805 5805 5805 5806 5806 5806 5805 5806 5806 5806 5807 5807 5807 5807 5807 5807 5807 5807 5806 5806 5805 5805 5804 5803 5803 5802 5801 5800 5800 5800 5800 5800 5799 5799
5797 5797 5797 5797 5797 5797 5798 5798 5800 5800 5800 5800 5802 5801 5801 5801 5801 5801 5801 5801 5801 5801 5801 5802 5802 5802 5801 5801 5800 5800 5799 5799 5798 5797 5797 5796 5795 5794 5794 5793 5793 5793 5792 5792
5793 5793 5793 5793 5793 5793 5793 5794 5794 5795 5796 5796 5796 5798 5796 5796 5796 5796 5796 5796 5796 5796 5796 5796 5796 5796 5796 5795 5795 5794 5793 5793 5792 5791 5790 5789 5789 5788 5787 5787 5786 5786 5785 5785
5789 5789 5788 5789 5789 5789 5789 5789 5790 5791 5791 5791 5791 5794 5791 5791 5791 5791 5790 5790 5790 5790 5790 5790 5790 5789 5789 5789 5788 5787 5787 5786 5786 5785 5784 5783 5783 5782 5781 5780 5779 5779 5778 5777
5785 5784 5784 5784 5786 5785 5784 5784 5785 5785 5786 5786 5786 5789 5787 5786 5786 5786 5785 5785 5785 5785 5784 5784 5783 5783 5783 5782 5781 5781 5780 5780 5779 5778 5778 5777 5776 5776 5775 5774 5773 5772 5771 5770
5780 5780 5780 5781 5780 5779 5779 5779 5779 5780 5780 5781 5781 5782 5782 5780 5780 5781 5780 5779 5779 5779 5778 5778 5777 5776 5776 5775 5774 5774 5773 5772 5772 5771 5771 5770 5770 5769 5768 5767 5766 5764 5763 5762
5774 5775 5774 5774 5774 5774 5774 5774 5774 5774 5775 5775 5776 5776 5776 5774 5774 5774 5774 5773 5773 5773 5772 5771 5770 5770 5769 5768 5767 5767 5766 5765 5765 5764 5764 5763 5763 5762 5761 5760 5759 5757 5756 5754
5769 5769 5769 5769 5769 5768 5768 5768 5768 5768 5769 5769 5769 5769 5769 5768 5768 5768 5767 5766 5766 5766 5765 5764 5763 5763 5762 5761 5760 5759 5759 5758 5758 5757 5757 5756 5755 5755 5754 5752 5751 5750 5748 5746
5762 5763 5762 5762 5762 5761 5761 5762 5761 5761 5762 5762 5762 5763 5762 5762 5761 5761 5761 5760 5759 5759 5758 5757 5756 5756 5755 5754 5753 5752 5752 5751 5751 5750 5749 5749 5748 5747 5746 5745 5744 5742 5740 5738
5756 5755 5755 5755 5755 5753 5758 5756 5755 5754 5754 5755 5754 5754 5755 5755 5754 5754 5753 5753 5753 5752 5751 5750 5749 5748 5748 5747 5746 5745 5744 5744 5743 5743 5742 5741 5741 5740 5739 5738 5736 5734 5733 5731
5749 5749 5748 5748 5746 5747 5749 5749 5748 5747 5747 5747 5747 5747 5747 5747 5747 5746 5746 5746 5746 5745 5744 5743 5742 5741 5741 5740 5739 5738 5737 5736 5736 5735 5734 5734 5733 5732 5731 5730 5728 5727 5725 5723
5743 5742 5741 5740 5739 5739 5742 5742 5740 5740 5739 5739 5739 5739 5739 5739 5739 5739 5739 5738 5738 5737 5736 5736 5735 5735 5734 5733 5732 5731 5730 5729 5729 5728 5727 5726 5725 5724 5723 5722 5720 5719 5717 5715
5736 5735 5734 5733 5731 5732 5733 5733 5732 5732 5732 5731 5730 5730 5730 5730 5730 5731 5730 5730 5730 5729 5729 5728 5727 5727 5727 5726 5725 5724 5723 5722 5721 5720 5719 5719 5718 5717 5715 5714 5712 5710 5709 5706
5727 5727 5726 5725 5724 5726 5725 5724 5724 5723 5722 5722 5721 5721 5721 5721 5721 5721 5721 5721 5721 5721 5720 5720 5720 5719 5719 5718 5717 5716 5716 5715 5713 5712 5712 5711 5710 5708 5707 5706 5704 5702 5700 5698
5720 5720 5719 5718 5719 5717 5716 5715 5714 5714 5713 5713 5713 5712 5713 5712 5712 5712 5713 5713 5712 5712 5712 5711 5711 5711 5710 5709 5709 5708 5707 5706 5705 5705 5703 5702 5701 5700 5699 5697 5695 5693 5691 5689
5713 5712 5710 5710 5709 5708 5707 5706 5705 5704 5704 5703 5703 5703 5704 5704 5703 5704 5704 5703 5703 5703 5703 5703 5702 5702 5701 5701 5700 5699 5698 5698 5697 5696 5695 5694 5693 5691 5690 5688 5686 5684 5682 5680
5705 5703 5701 5701 5701 5700 5699 5698 5696 5694 5694 5694 5694 5694 5694 5694 5694 5694 5694 5694 5694 5694 5694 5694 5693 5693 5692 5692 5691 5690 5689 5688 5688 5687 5686 5685 5683 5682 5681 5679 5677 5675 5673 5670
5696 5694 5693 5692 5692 5690 5689 5688 5687 5686 5685 5685 5684 5684 5684 5684 5684 5684 5684 5684 5684 5684 5684 5684 5684 5683 5683 5682 5682 5681 5680 5679 5678 5677 5676 5675 5674 5672 5671 5669 5667 5665 5663 5660